FW6992 Weather Reports


time (UTC)temp
F
wind
direction
speed
knots
gust
knots
rain 1hr
in
rain 24hr
in
rain mn
in
humidity
%
barometer
mb
20260903233054 82 343 0.0 0.0 0.00 0.00 0.00 70 1018.0
20260903232544 83 251 0.0 0.0 0.00 0.00 0.00 69 1018.0
20260903232039 83 251 0.0 0.0 0.00 0.00 0.00 69 1017.7
20260903231533 83 251 0.0 0.0 0.00 0.00 0.00 69 1017.9
20260903231027 83 251 0.0 0.0 0.00 0.00 0.00 69 1017.9
20260903230524 83 251 0.0 0.0 0.00 0.00 0.00 69 1017.8
20260903230022 84 185 0.0 0.0 0.00 0.00 0.00 68 1017.7
20260903225520 84 185 0.0 0.0 0.00 0.00 0.00 66 1017.7
20260903225016 84 185 0.0 0.0 0.00 0.00 0.00 66 1017.9
20260903224512 85 354 0.0 0.0 0.00 0.00 0.00 66 1017.9
20260903224008 85 354 0.0 0.0 0.00 0.00 0.00 66 1017.7
20260903223507 85 354 0.0 0.0 0.00 0.00 0.00 66 1017.9
20260903223007 85 354 0.0 0.0 0.00 0.00 0.00 65 1017.6
20260903222501 85 354 0.0 0.0 0.00 0.00 0.00 67 1017.6
20260903222000 85 341 0.0 0.0 0.00 0.00 0.00 66 1017.6
20260903221455 86 354 0.0 0.0 0.00 0.00 0.00 65 1017.6
20260903220952 86 354 0.0 0.0 0.00 0.00 0.00 65 1017.7
20260903220447 86 298 0.0 0.0 0.00 0.00 0.00 64 1017.3
20260903215944 86 263 0.0 0.0 0.00 0.00 0.00 64 1017.7
20260903215441 86 251 0.0 0.0 0.00 0.00 0.00 64 1017.8
20260903214939 86 226 0.0 0.0 0.00 0.00 0.00 63 1017.8
20260903214436 86 206 0.0 1.7 0.00 0.00 0.00 65 1017.6
20260903213935 86 131 0.0 0.9 0.00 0.00 0.00 62 1017.8
20260903213430 85 276 0.0 0.0 0.00 0.00 0.00 66 1018.0
20260903212926 85 58 0.0 0.0 0.00 0.00 0.00 65 1018.1
20260903212422 85 305 0.0 0.0 0.00 0.00 0.00 66 1017.9
20260903211921 85 276 0.0 0.0 0.00 0.00 0.00 65 1017.9
20260903211417 86 130 0.9 0.9 0.00 0.00 0.00 64 1018.2
20260903210914 87 6 0.0 0.0 0.00 0.00 0.00 62 1018.0
20260903210413 88 330 0.9 2.6 0.00 0.00 0.00 63 1018.3
20260903205908 89 239 0.0 0.0 0.00 0.00 0.00 65 1018.1
20260903205408 91 138 0.0 0.0 0.00 0.00 0.00 60 1018.3
20260903204902 91 138 0.0 0.0 0.00 0.00 0.00 60 1018.4
20260903204359 92 128 0.0 0.0 0.00 0.00 0.00 58 1018.3
20260903203854 91 181 0.0 0.0 0.00 0.00 0.00 61 1018.2
20260903203350 91 223 0.0 0.0 0.00 0.00 0.00 60 1018.4
20260903202848 90 354 0.0 0.0 0.00 0.00 0.00 62 1018.3
20260903202345 90 216 0.0 0.0 0.00 0.00 0.00 58 1018.4
20260903201845 91 263 0.0 0.0 0.00 0.00 0.00 58 1018.4
20260903201340 91 263 0.0 0.0 0.00 0.00 0.00 58 1018.7
20260903200839 91 263 0.0 0.0 0.00 0.00 0.00 58 1018.6
20260903200334 91 263 0.0 0.0 0.00 0.00 0.00 58 1018.5
20260903195829 93 168 0.0 0.0 0.00 0.00 0.00 52 1018.6
20260903195326 93 168 0.0 0.0 0.00 0.00 0.00 52 1018.4
20260903194820 93 168 0.0 0.0 0.00 0.00 0.00 52 1018.3
20260903194316 93 168 0.0 0.0 0.00 0.00 0.00 52 1018.6
20260903193812 93 168 0.0 0.0 0.00 0.00 0.00 52 1018.6
20260903193307 93 168 0.0 0.0 0.00 0.00 0.00 52 1018.1
20260903192802 93 168 0.0 0.0 0.00 0.00 0.00 52 1018.8
20260903192258 94 343 0.0 0.0 0.00 0.00 0.00 50 1018.7
20260903191754 98 248 0.0 0.9 0.00 0.00 0.00 46 1018.8
20260903191250 98 248 0.0 0.9 0.00 0.00 0.00 46 1019.0
20260903190744 98 248 0.0 0.9 0.00 0.00 0.00 46 1018.7
20260903190244 98 248 0.0 0.9 0.00 0.00 0.00 46 1019.2
20260903185739 98 248 0.0 0.9 0.00 0.00 0.00 46 1019.0
20260903185238 98 248 0.0 0.9 0.00 0.00 0.00 46 1019.1
20260903184735 98 248 0.0 0.9 0.00 0.00 0.00 46 1019.1
20260903184231 98 248 0.0 0.9 0.00 0.00 0.00 46 1019.4
20260903183726 98 255 0.0 0.9 0.00 0.00 0.00 48 1019.4
20260903183220 97 223 0.0 0.9 0.00 0.00 0.00 45 1019.5
20260903182719 96 263 0.0 1.7 0.00 0.00 0.00 53 1019.6
20260903182215 96 212 0.0 1.7 0.00 0.00 0.00 52 1019.6
20260903181713 96 76 0.9 1.7 0.00 0.00 0.00 48 1019.6
20260903181203 97 256 0.0 0.0 0.00 0.00 0.00 49 1019.8
20260903180659 97 248 0.9 0.9 0.00 0.00 0.00 47 1019.5
20260903180157 96 352 0.0 0.0 0.00 0.00 0.00 52 1019.7
20260903175657 96 14 0.0 1.7 0.00 0.00 0.00 50 1019.6
20260903175151 93 119 1.7 1.7 0.00 0.00 0.00 52 1019.7
20260903174651 93 119 1.7 1.7 0.00 0.00 0.00 52 1020.0
20260903174145 93 119 1.7 1.7 0.00 0.00 0.00 52 1020.0
20260903173641 93 77 1.7 1.7 0.00 0.00 0.00 53 1020.1
20260903173137 93 64 0.9 0.9 0.00 0.00 0.00 56 1020.0
20260903172637 93 64 0.9 1.7 0.00 0.00 0.00 56 1020.2
20260903172132 93 264 0.0 0.9 0.00 0.00 0.00 57 1020.1
20260903171632 93 135 1.7 1.7 0.00 0.00 0.00 57 1020.3
20260903171128 93 262 0.0 0.9 0.00 0.00 0.00 58 1020.5
20260903170627 90 77 1.7 1.7 0.00 0.00 0.00 58 1020.1
20260903170123 90 96 0.0 0.0 0.00 0.00 0.00 59 1020.4
20260903165620 88 283 1.7 1.7 0.00 0.00 0.00 63 1020.6
20260903165115 88 283 1.7 1.7 0.00 0.00 0.00 63 1020.7
20260903164610 88 230 0.0 0.9 0.00 0.00 0.00 62 1020.9
20260903164106 89 304 0.0 0.9 0.00 0.00 0.00 62 1020.6
20260903163600 0 0.0 0.0 0.00 0.00 0.00 1020.8
20260903163056 0 0.0 0.0 0.00 0.00 0.00 1020.8
20260903162552 0 0.0 0.0 0.00 0.00 0.00 1020.8
20260903162048 86 196 1.7 1.7 0.00 0.00 0.00 63 1020.7
20260903161543 86 196 1.7 1.7 0.00 0.00 0.00 63 1021.0
20260903161039 86 196 1.7 1.7 0.00 0.00 0.00 63 1021.0
20260903160539 86 196 1.7 1.7 0.00 0.00 0.00 63 1021.0
20260903160033 86 196 1.7 1.7 0.00 0.00 0.00 63 1021.0
20260903155532 86 196 1.7 1.7 0.00 0.00 0.00 63 1021.1
20260903155028 86 196 1.7 1.7 0.00 0.00 0.00 63 1021.1
20260903154524 86 196 1.7 1.7 0.00 0.00 0.00 63 1021.0
20260903154020 86 196 1.7 1.7 0.00 0.00 0.00 63 1020.8
20260903153515 86 196 1.7 1.7 0.00 0.00 0.00 63 1021.3
20260903153011 86 196 1.7 1.7 0.00 0.00 0.00 63 1021.5
20260903152507 86 196 1.7 1.7 0.00 0.00 0.00 63 1021.2
20260903152003 86 240 1.7 1.7 0.00 0.00 0.00 66 1021.4
20260903151502 85 280 0.0 0.9 0.00 0.00 0.00 65 1021.2
20260903150957 84 239 1.7 2.6 0.00 0.00 0.00 68 1021.2
20260903150456 84 353 0.9 1.7 0.00 0.00 0.00 68 1021.2
20260903145951 83 28 0.9 3.5 0.00 0.00 0.00 69 1021.3
20260903145446 83 252 1.7 1.7 0.00 0.00 0.00 72 1021.1
20260903144942 82 162 0.0 0.0 0.00 0.00 0.00 74 1021.2
20260903144441 81 274 1.7 1.7 0.00 0.00 0.00 75 1020.8
20260903143937 81 245 1.7 1.7 0.00 0.00 0.00 74 1021.2
20260903143433 81 180 0.9 3.5 0.00 0.00 0.00 73 1020.9
20260903142928 81 249 1.7 1.7 0.00 0.00 0.00 74 1020.9
20260903142424 82 129 0.9 2.6 0.00 0.00 0.00 72 1021.0
20260903141920 82 63 1.7 1.7 0.00 0.00 0.00 74 1021.0
20260903141415 82 278 0.0 0.0 0.00 0.00 0.00 74 1020.8
20260903140911 81 124 0.0 0.0 0.00 0.00 0.00 74 1021.0
20260903140407 81 304 0.0 0.0 0.00 0.00 0.00 75 1021.2
20260903135902 81 322 0.0 0.9 0.00 0.00 0.00 76 1021.0
20260903135357 81 298 0.9 0.9 0.00 0.00 0.00 75 1020.6
20260903134856 82 171 1.7 1.7 0.00 0.00 0.00 73 1020.8
20260903134351 82 320 0.0 0.0 0.00 0.00 0.00 72 1020.7
20260903133849 81 151 0.0 0.0 0.00 0.00 0.00 73 1020.7
20260903133345 81 266 0.0 0.9 0.00 0.00 0.00 74 1020.4
20260903132839 81 263 0.0 0.0 0.00 0.00 0.00 75 1020.6
20260903132335 80 84 0.0 0.9 0.00 0.00 0.00 74 1020.5
20260903131830 80 238 0.0 0.0 0.00 0.00 0.00 76 1020.6
20260903131330 80 336 0.0 0.0 0.00 0.00 0.00 77 1020.5
20260903130829 80 336 0.0 0.0 0.00 0.00 0.00 77 1020.6
20260903130324 80 336 0.0 0.0 0.00 0.00 0.00 77 1020.5
20260903125822 80 273 0.0 0.9 0.00 0.00 0.00 77 1020.9
20260903125318 80 311 0.0 0.0 0.00 0.00 0.00 77 1021.0
20260903124817 79 97 0.0 0.9 0.00 0.00 0.00 80 1020.8
20260903124313 77 261 0.0 0.9 0.00 0.00 0.00 83 1021.1
20260903123811 76 290 0.0 0.9 0.00 0.00 0.00 86 1021.1
20260903123311 75 212 0.0 0.9 0.00 0.00 0.00 87 1020.9
20260903122809 75 36 0.0 0.0 0.00 0.00 0.00 88 1021.0
20260903122306 75 326 0.0 0.0 0.00 0.00 0.00 87 1020.8
20260903121802 74 294 0.0 0.0 0.00 0.00 0.00 87 1020.8
20260903121253 74 330 0.0 0.0 0.00 0.00 0.00 88 1021.0
20260903120749 74 251 0.0 0.9 0.00 0.00 0.00 89 1020.9
20260903120247 74 258 0.0 0.0 0.00 0.00 0.00 89 1021.0
20260903115747 73 281 0.0 0.0 0.00 0.00 0.00 91 1020.9
20260903115242 73 281 0.0 0.0 0.00 0.00 0.00 91 1020.9
20260903114742 73 238 0.0 0.0 0.00 0.00 0.00 91 1020.8
20260903114238 72 251 0.0 0.0 0.00 0.00 0.00 91 1020.7
20260903113732 72 330 0.0 0.0 0.00 0.00 0.00 91 1020.8
20260903113229 72 251 0.0 0.0 0.00 0.00 0.00 91 1020.7
20260903112724 72 185 0.0 0.0 0.00 0.00 0.00 92 1020.7
20260903112220 72 239 0.0 0.0 0.00 0.00 0.00 92 1020.4
20260903111719 72 290 0.0 0.0 0.00 0.00 0.00 92 1020.3
20260903111214 72 138 0.0 0.0 0.00 0.00 0.00 92 1020.4
20260903110710 71 318 0.0 0.0 0.00 0.00 0.00 92 1020.3
20260903110206 71 318 0.0 0.0 0.00 0.00 0.00 92 1020.0
20260903105705 71 201 0.0 0.0 0.00 0.00 0.00 92 1020.0
20260903105200 71 238 0.0 0.0 0.00 0.00 0.00 92 1020.5
20260903104700 71 110 0.0 0.0 0.00 0.00 0.00 92 1020.1
20260903104155 71 110 0.0 0.0 0.00 0.00 0.00 92 1020.1
20260903103651 71 223 0.0 0.0 0.00 0.00 0.00 91 1020.1
20260903103147 71 323 0.0 0.9 0.00 0.00 0.00 91 1020.1
20260903102642 71 330 0.0 0.0 0.00 0.00 0.00 91 1020.2
20260903102142 71 134 0.0 0.0 0.00 0.00 0.00 91 1020.0
20260903101641 71 290 0.0 0.0 0.00 0.00 0.00 91 1019.9
20260903101137 71 138 0.0 0.0 0.00 0.00 0.00 91 1020.2
20260903100631 71 251 0.0 0.9 0.00 0.00 0.00 91 1019.9
20260903100131 71 250 0.0 0.0 0.00 0.00 0.00 91 1020.0
20260903095628 71 289 0.0 0.9 0.00 0.00 0.00 91 1020.0
20260903095128 71 303 0.0 0.9 0.00 0.00 0.00 91 1020.0
20260903094623 72 320 0.0 0.9 0.00 0.00 0.00 91 1020.3
20260903094119 72 336 0.0 0.0 0.00 0.00 0.00 91 1019.9
20260903093614 72 223 0.0 0.9 0.00 0.00 0.00 91 1020.1
20260903093109 72 4 0.0 0.0 0.00 0.00 0.00 90 1020.0
20260903092608 72 163 0.0 0.9 0.00 0.00 0.00 90 1020.0
20260903092103 72 168 0.0 0.0 0.00 0.00 0.00 90 1020.1
20260903091602 72 251 0.0 0.9 0.00 0.00 0.00 90 1020.0
20260903091056 72 163 0.0 0.0 0.00 0.00 0.00 90 1020.0
20260903090552 72 284 0.0 0.9 0.00 0.00 0.00 89 1020.2
20260903090051 72 245 0.0 0.9 0.00 0.00 0.00 89 1020.1
20260903085549 72 58 0.0 0.0 0.00 0.00 0.00 89 1019.9
20260903085045 73 110 0.0 0.9 0.00 0.00 0.00 89 1020.0
20260903084543 73 245 0.0 0.0 0.00 0.00 0.00 89 1020.0
20260903084038 72 244 0.0 0.9 0.00 0.00 0.00 89 1019.8
20260903083534 72 178 0.0 0.0 0.00 0.00 0.00 89 1019.6
20260903083034 72 263 0.0 0.0 0.00 0.00 0.00 89 1019.8
20260903082528 72 138 0.0 0.9 0.00 0.00 0.00 89 1019.8
20260903082023 73 194 0.0 0.0 0.00 0.00 0.00 89 1019.7
20260903081519 73 318 0.0 0.9 0.00 0.00 0.00 89 1019.8
20260903081015 73 321 0.0 0.0 0.00 0.00 0.00 89 1019.8
20260903080511 73 233 0.0 0.0 0.00 0.00 0.00 88 1019.7
20260903080008 73 240 0.0 1.7 0.00 0.00 0.00 89 1019.8
20260903075502 73 251 0.0 0.0 0.00 0.00 0.00 89 1019.6
20260903074957 73 251 0.0 0.0 0.00 0.00 0.00 89 1019.6
20260903074456 73 336 0.0 0.0 0.00 0.00 0.00 89 1019.8
20260903073951 73 336 0.0 0.0 0.00 0.00 0.00 89 1019.8
20260903073446 73 238 0.0 0.0 0.00 0.00 0.00 89 1019.5
20260903072942 73 238 0.0 0.0 0.00 0.00 0.00 89 1019.5
20260903072438 73 238 0.0 0.0 0.00 0.00 0.00 88 1019.7
20260903071935 73 238 0.0 0.0 0.00 0.00 0.00 88 1019.5
20260903071430 73 150 0.0 0.0 0.00 0.00 0.00 88 1019.8
20260903070926 73 150 0.0 0.0 0.00 0.00 0.00 87 1019.9
20260903070420 73 330 0.0 0.0 0.00 0.00 0.00 87 1019.9
20260903065915 73 330 0.0 0.0 0.00 0.00 0.00 87 1019.8
20260903065414 73 330 0.0 0.0 0.00 0.00 0.00 87 1019.9
20260903064914 73 330 0.0 0.0 0.00 0.00 0.00 87 1020.1
20260903064409 73 330 0.0 0.0 0.00 0.00 0.00 87 1020.0
20260903063906 73 330 0.0 0.0 0.00 0.00 0.00 87 1020.0
20260903063401 73 330 0.0 0.0 0.00 0.00 0.00 87 1020.2
20260903062856 73 330 0.0 0.0 0.00 0.00 0.00 87 1020.1
20260903062355 73 330 0.0 0.0 0.00 0.00 0.00 87 1019.9
20260903061852 73 343 0.0 0.0 0.00 0.00 0.00 87 1019.9
20260903061351 73 330 0.0 0.0 0.00 0.00 0.00 87 1020.1
20260903060847 73 330 0.0 0.0 0.00 0.00 0.00 87 1020.0
20260903060346 73 330 0.0 0.0 0.00 0.00 0.00 87 1019.9
20260903055844 73 330 0.0 0.0 0.00 0.00 0.00 87 1020.4
20260903055343 73 178 0.0 0.0 0.00 0.00 0.00 87 1020.1
20260903054838 73 216 0.0 0.0 0.00 0.00 0.00 86 1020.1
20260903054338 73 216 0.0 0.0 0.00 0.00 0.00 86 1020.2
20260903053835 73 216 0.0 0.0 0.00 0.00 0.00 87 1020.3
20260903053329 73 216 0.0 0.0 0.00 0.00 0.00 87 1020.3
20260903052825 73 216 0.0 0.0 0.00 0.00 0.00 87 1020.4
20260903052320 73 216 0.0 0.0 0.00 0.00 0.00 87 1020.5
20260903051816 73 216 0.0 0.0 0.00 0.00 0.00 87 1020.5
20260903051311 73 216 0.0 0.0 0.00 0.00 0.00 87 1020.7
20260903050806 73 216 0.0 0.0 0.00 0.00 0.00 87 1020.5
20260903050305 73 216 0.0 0.0 0.00 0.00 0.00 87 1020.5
20260903045800 73 216 0.0 0.0 0.00 0.00 0.00 87 1020.6
20260903045256 73 318 0.0 0.0 0.00 0.00 0.00 87 1020.8
20260903044752 73 238 0.0 0.0 0.00 0.00 0.00 87 1020.5
20260903044247 74 238 0.0 0.0 0.00 0.00 0.00 86 1020.6
20260903043744 74 263 0.0 0.9 0.00 0.00 0.00 86 1020.9
20260903043244 74 263 0.0 0.0 0.00 0.00 0.00 85 1020.7
20260903042743 74 263 0.0 0.0 0.00 0.00 0.00 85 1020.6
20260903042238 74 263 0.0 0.0 0.00 0.00 0.00 84 1020.8
20260903041734 74 87 0.0 0.0 0.00 0.00 0.00 83 1020.6
20260903041231 74 87 0.0 0.0 0.00 0.00 0.00 83 1020.2
20260903040730 74 314 0.0 0.0 0.00 0.00 0.00 83 1020.4
20260903040225 74 314 0.0 0.0 0.00 0.00 0.00 83 1020.3
20260903035721 74 343 0.0 0.0 0.00 0.00 0.00 84 1020.4
20260903035217 74 343 0.0 0.0 0.00 0.00 0.00 84 1020.4
20260903034717 75 175 0.0 0.0 0.00 0.00 0.00 83 1020.6
20260903034212 75 175 0.0 0.0 0.00 0.00 0.00 83 1020.5
20260903033708 75 175 0.0 0.0 0.00 0.00 0.00 82 1020.6
20260903033208 75 233 0.0 0.0 0.00 0.00 0.00 82 1020.4
20260903032702 75 354 0.0 0.0 0.00 0.00 0.00 82 1020.6
20260903032158 75 354 0.0 0.0 0.00 0.00 0.00 82 1020.6
20260903031654 75 354 0.0 0.0 0.00 0.00 0.00 83 1020.6
20260903031153 75 207 0.0 0.0 0.00 0.00 0.00 83 1020.4
20260903030649 75 207 0.0 0.0 0.00 0.00 0.00 83 1020.8
20260903030144 75 207 0.0 0.0 0.00 0.00 0.00 83 1020.7
20260903025640 75 207 0.0 0.0 0.00 0.00 0.00 83 1020.8
20260903025135 75 207 0.0 0.0 0.00 0.00 0.00 83 1020.7
20260903024630 75 207 0.0 0.0 0.00 0.00 0.00 84 1021.0
20260903024129 75 207 0.0 0.0 0.00 0.00 0.00 83 1020.8
20260903023625 75 207 0.0 0.0 0.00 0.00 0.00 83 1020.9
20260903023125 75 214 0.0 0.0 0.00 0.00 0.00 83 1021.3
20260903022621 75 263 0.0 0.0 0.00 0.00 0.00 83 1021.1
20260903022120 75 263 0.0 0.0 0.00 0.00 0.00 83 1021.3
20260903021619 75 263 0.0 0.0 0.00 0.00 0.00 84 1021.1
20260903021114 75 238 0.0 0.0 0.00 0.00 0.00 84 1021.3
20260903020610 75 238 0.0 0.0 0.00 0.00 0.00 84 1021.2
20260903020110 0 0.0 0.0 0.00 0.00 0.00 1021.5
20260903015605 0 0.0 0.0 0.00 0.00 0.00 1021.6
20260903015101 76 134 0.0 0.0 0.00 0.00 0.00 78 1021.6
20260903014600 76 134 0.0 0.0 0.00 0.00 0.00 78 1021.7
20260903014100 76 134 0.0 0.0 0.00 0.00 0.00 78 1021.5
20260903013555 76 134 0.0 0.0 0.00 0.00 0.00 78 1021.3
20260903013050 76 134 0.0 0.0 0.00 0.00 0.00 78 1021.4
20260903012549 76 134 0.0 0.0 0.00 0.00 0.00 78 1021.4
20260903012048 76 134 0.0 0.0 0.00 0.00 0.00 78 1021.4
20260903011543 76 134 0.0 0.0 0.00 0.00 0.00 78 1021.2
20260903011037 76 134 0.0 0.0 0.00 0.00 0.00 78 1021.4
20260903010533 76 134 0.0 0.0 0.00 0.00 0.00 78 1021.5
20260903010031 76 134 0.0 0.0 0.00 0.00 0.00 78 1021.3
20260903005531 76 134 0.0 0.0 0.00 0.00 0.00 78 1021.4
20260903005027 76 71 0.0 0.9 0.00 0.00 0.00 78 1021.1
20260903004526 77 233 0.0 0.9 0.00 0.00 0.00 78 1021.2
20260903004022 77 69 0.0 0.0 0.00 0.00 0.00 78 1021.3
20260903003517 77 49 0.0 0.0 0.00 0.00 0.00 77 1021.0
20260903003013 77 330 0.0 0.9 0.00 0.00 0.00 78 1020.8
20260903002512 77 292 0.0 0.0 0.00 0.00 0.00 77 1020.9
20260903002008 77 121 0.9 0.9 0.00 0.00 0.00 76 1020.7
20260903001508 77 256 0.0 0.9 0.00 0.00 0.00 75 1020.6
20260903001007 78 150 0.0 0.0 0.00 0.00 0.00 75 1020.8
20260903000503 78 150 0.0 0.0 0.00 0.00 0.00 75 1021.0
20260903000001 78 150 0.0 0.0 0.00 0.00 0.00 75 1020.5
20260902235455 78 325 0.0 0.0 0.00 0.00 0.00 75 1020.8
20260902234950 78 162 0.0 0.0 0.00 0.00 0.00 75 1020.8
20260902234445 78 245 0.0 0.0 0.00 0.00 0.00 73 1021.1
20260902233944 79 276 0.0 0.9 0.00 0.00 0.00 72 1021.2